Crane Lake, MN

1:05 PM CDT on August 30, 2016 (GMT -0500)
Crane Lake

Weather History for KCDD - October, 2012

Change the Weather History Date:

Tuesday, October 30, 2012

  Actual Average Record
Temperature  
Mean Temperature 32 °F -  
Max Temperature 44 °F 40 °F 69 °F (2007)
Min Temperature 17 °F 28 °F 17 °F (2012)
Degree Days  
Heating Degree Days 34    
Moisture  
Dew Point 25 °F    
Average Humidity 85    
Maximum Humidity 100    
Minimum Humidity 66    
Precipitation  
Precipitation 0.00 in - - ()
Sea Level Pressure  
Sea Level Pressure 30.25 in    
Wind  
Wind Speed 1 mph (NE)    
Max Wind Speed 7 mph    
Max Gust Speed -    
Visibility 10 miles    
Events      
Averages and records for this station are not official NWS values.
T = Trace of Precipitation, MM = Missing Value Source: NWS Daily Summary

Daily Weather History Graph

Daily Weather History Graph

Search for Another Location

Airport or City:

Trip Planner

Search our weather history database for the weather conditions in past years. The results will help you decide how hot, cold, wet, or windy it might be!

Date:

Astronomy

Oct. 30, 2012 Rise Set
Actual Time 7:53 AM CDT 5:53 PM CDT
Civil Twilight 7:20 AM CDT 6:25 PM CDT
Nautical Twilight 6:43 AM CDT 7:02 PM CDT
Astronomical Twilight 6:07 AM CDT 7:38 PM CDT
Moon 6:16 PM CDT 8:46 AM CDT
Length of Visible Light 11h 05m
Length of Day
10h 00m
Full, 99% of the Moon is Illuminated
Oct 30
Full
Nov 6
Last Quarter
Nov 13
New
Nov 20
First Quarter
Nov 28
Full

Hourly Weather History & Observations

Time (CDT) Temp. Windchill Dew Point Humidity Pressure Visibility Wind Dir Wind Speed Gust Speed Precip Events Conditions
12:07 AM 24.8 °F - 23.0 °F 93% 30.32 in 10.0 mi Calm Calm - N/A   Clear
12:27 AM 24.8 °F - 21.2 °F 86% 30.33 in 10.0 mi Calm Calm - N/A   Scattered Clouds
12:47 AM 24.8 °F - 23.0 °F 93% 30.33 in 7.0 mi Calm Calm - N/A   Mostly Cloudy
1:07 AM 24.8 °F - 23.0 °F 93% 30.33 in 10.0 mi Calm Calm - N/A   Mostly Cloudy
1:27 AM 24.8 °F - 23.0 °F 93% 30.33 in 10.0 mi Calm Calm - N/A   Clear
1:47 AM 24.8 °F - 21.2 °F 86% 30.33 in 10.0 mi Calm Calm - N/A   Clear
2:07 AM 23.0 °F - 21.2 °F 93% 30.33 in 7.0 mi Calm Calm - N/A   Clear
2:27 AM 23.0 °F - 21.2 °F 93% 30.33 in 10.0 mi Calm Calm - N/A   Clear
2:47 AM 23.0 °F - 21.2 °F 93% 30.32 in 10.0 mi Calm Calm - N/A   Clear
3:07 AM 23.0 °F - 21.2 °F 93% 30.32 in 10.0 mi Calm Calm - N/A   Clear
3:27 AM 21.2 °F - 21.2 °F 100% 30.32 in 10.0 mi Calm Calm - N/A   Clear
3:47 AM 21.2 °F - 19.4 °F 93% 30.32 in 10.0 mi Calm Calm - N/A   Clear
4:07 AM 21.2 °F - 19.4 °F 93% 30.31 in 10.0 mi Calm Calm - N/A   Clear
4:27 AM 21.2 °F - 19.4 °F 93% 30.31 in 10.0 mi Calm Calm - N/A   Clear
4:47 AM 21.2 °F - 19.4 °F 93% 30.31 in 10.0 mi Calm Calm - N/A   Clear
5:07 AM 21.2 °F - 19.4 °F 93% 30.31 in 10.0 mi Calm Calm - N/A   Clear
5:27 AM 21.2 °F - 19.4 °F 93% 30.31 in 10.0 mi Calm Calm - N/A   Clear
5:48 AM 21.2 °F - 19.4 °F 93% 30.31 in 10.0 mi Calm Calm - N/A   Clear
6:08 AM 19.4 °F - 17.6 °F 93% 30.31 in 10.0 mi Calm Calm - N/A   Clear
6:28 AM 19.4 °F - 17.6 °F 93% 30.30 in 10.0 mi Calm Calm - N/A   Clear
6:48 AM 19.4 °F - 17.6 °F 93% 30.31 in 10.0 mi Calm Calm - N/A   Clear
7:07 AM 19.4 °F - 17.6 °F 93% 30.31 in 10.0 mi Calm Calm - N/A   Clear
7:27 AM 19.4 °F - 17.6 °F 93% 30.31 in 10.0 mi Calm Calm - N/A   Clear
7:47 AM 19.4 °F - 17.6 °F 93% 30.31 in 10.0 mi Calm Calm - N/A   Clear
8:07 AM 19.4 °F - 17.6 °F 93% 30.31 in 10.0 mi Calm Calm - N/A   Clear
8:27 AM 19.4 °F - 17.6 °F 93% 30.31 in 10.0 mi Calm Calm - N/A   Clear
8:47 AM 21.2 °F - 19.4 °F 93% 30.31 in 10.0 mi Calm Calm - N/A   Clear
9:07 AM 24.8 °F - 21.2 °F 86% 30.31 in 10.0 mi Calm Calm - N/A   Clear
9:27 AM 26.6 °F - 24.8 °F 93% 30.31 in 10.0 mi Calm Calm - N/A   Clear
9:47 AM 30.2 °F 25.4 °F 28.4 °F 93% 30.31 in 10.0 mi ESE 4.6 mph - N/A   Clear
10:08 AM 33.8 °F - 30.2 °F 87% 30.31 in 10.0 mi Calm Calm - N/A   Clear
10:27 AM 33.8 °F - 32.0 °F 93% 30.31 in 10.0 mi Calm Calm - N/A   Clear
10:47 AM 35.6 °F 31.7 °F 33.8 °F 93% 30.31 in 10.0 mi East 4.6 mph - N/A   Clear
11:08 AM 37.4 °F - 33.8 °F 87% 30.30 in 10.0 mi Calm Calm - N/A   Clear
11:47 AM 39.2 °F 34.2 °F 35.6 °F 87% 30.29 in 10.0 mi NNE 6.9 mph - N/A   Clear
12:07 PM 39.2 °F 34.2 °F 35.6 °F 87% 30.28 in 10.0 mi NE 6.9 mph - N/A   Clear
12:28 PM 39.2 °F 35.0 °F 35.6 °F 87% 30.27 in 10.0 mi NNE 5.8 mph - N/A   Clear
12:48 PM 41.0 °F 38.0 °F 35.6 °F 81% 30.27 in 10.0 mi ENE 4.6 mph - N/A   Clear
1:07 PM 41.0 °F 38.0 °F 35.6 °F 81% 30.26 in 10.0 mi NE 4.6 mph - N/A   Clear
1:27 PM 41.0 °F 37.1 °F 35.6 °F 81% 30.25 in 10.0 mi NNE 5.8 mph - N/A   Clear
1:47 PM 42.8 °F 40.1 °F 35.6 °F 76% 30.24 in 10.0 mi NE 4.6 mph - N/A   Clear
2:08 PM 42.8 °F - 33.8 °F 70% 30.23 in 10.0 mi Calm Calm - N/A   Clear
2:28 PM 42.8 °F 41.1 °F 35.6 °F 76% 30.22 in 10.0 mi ENE 3.5 mph - N/A   Clear
2:47 PM 42.8 °F 41.1 °F 32.0 °F 66% 30.21 in 10.0 mi NE 3.5 mph - N/A   Clear
3:07 PM 42.8 °F - 32.0 °F 66% 30.21 in 10.0 mi Calm Calm - N/A   Clear
3:27 PM 44.6 °F - 35.6 °F 71% 30.21 in 10.0 mi Calm Calm - N/A   Clear
3:47 PM 44.6 °F 42.2 °F 35.6 °F 71% 30.21 in 10.0 mi NE 4.6 mph - N/A   Clear
4:07 PM 42.8 °F 40.1 °F 33.8 °F 70% 30.20 in 10.0 mi NE 4.6 mph - N/A   Clear
4:27 PM 42.8 °F 39.3 °F 33.8 °F 70% 30.20 in 10.0 mi NNE 5.8 mph - N/A   Clear
4:48 PM 41.0 °F 38.0 °F 33.8 °F 76% 30.20 in 10.0 mi NNE 4.6 mph - N/A   Clear
5:07 PM 37.4 °F - 30.2 °F 75% 30.20 in 10.0 mi Calm Calm - N/A   Clear
5:27 PM 35.6 °F - 28.4 °F 75% 30.20 in 10.0 mi Calm Calm - N/A   Clear
5:47 PM 32.0 °F - 26.6 °F 80% 30.19 in 10.0 mi Calm Calm - N/A   Clear
6:07 PM 32.0 °F 28.7 °F 26.6 °F 80% 30.19 in 10.0 mi NNE 3.5 mph - N/A   Clear
6:27 PM 30.2 °F - 24.8 °F 80% 30.19 in 10.0 mi Calm Calm - N/A   Clear
6:47 PM 28.4 °F - 21.2 °F 74% 30.19 in 10.0 mi Calm Calm - N/A   Clear
7:07 PM 26.6 °F - 19.4 °F 74% 30.18 in 10.0 mi Calm Calm - N/A   Clear
7:27 PM 26.6 °F - 21.2 °F 80% 30.18 in 10.0 mi Calm Calm - N/A   Clear
7:47 PM 26.6 °F - 21.2 °F 80% 30.18 in 10.0 mi Calm Calm - N/A   Clear
8:07 PM 26.6 °F - 21.2 °F 80% 30.18 in 10.0 mi Calm Calm - N/A   Clear
8:27 PM 24.8 °F - 21.2 °F 86% 30.17 in 10.0 mi Calm Calm - N/A   Clear
8:47 PM 24.8 °F - 19.4 °F 80% 30.17 in 10.0 mi Calm Calm - N/A   Clear
9:08 PM 24.8 °F - 19.4 °F 80% 30.17 in 10.0 mi Calm Calm - N/A   Clear
9:27 PM 24.8 °F - 19.4 °F 80% 30.16 in 10.0 mi Calm Calm - N/A   Clear
9:47 PM 24.8 °F - 21.2 °F 86% 30.16 in 10.0 mi Calm Calm - N/A   Clear
10:07 PM 24.8 °F - 19.4 °F 80% 30.16 in 10.0 mi Calm Calm - N/A   Clear
10:28 PM 23.0 °F - 19.4 °F 86% 30.15 in 10.0 mi Calm Calm - N/A   Clear
10:48 PM 21.2 °F - 17.6 °F 86% 30.14 in 10.0 mi Calm Calm - N/A   Clear
11:08 PM 19.4 °F - 15.8 °F 86% 30.13 in 10.0 mi Calm Calm - N/A   Clear
11:28 PM 19.4 °F - 15.8 °F 86% 30.13 in 10.0 mi Calm Calm - N/A   Clear
11:47 PM 17.6 °F - 15.8 °F 93% 30.13 in 10.0 mi Calm Calm - N/A   Clear